| time (UTC) | temp F | wind direction | speed MPH | gust MPH | rain 1hr in | rain 24hr in | rain mn in | humidity % | barometer mb |
| 20260906183011 | 65 | 195 | 4.0 | 8.0 | 0.00 | 0.00 | 0.00 | 77 | 1014.0 |
| 20260906181506 | 65 | 212 | 3.0 | 8.0 | 0.00 | 0.00 | 0.00 | 78 | 1014.2 |
| 20260906180008 | 63 | 171 | 2.0 | 7.0 | 0.00 | 0.00 | 0.00 | 80 | 1014.2 |
| 20260906174506 | 64 | 155 | 3.0 | 7.0 | 0.00 | 0.00 | 0.00 | 78 | 1014.1 |
| 20260906173004 | 64 | 223 | 2.0 | 7.0 | 0.00 | 0.00 | 0.00 | 81 | 1014.1 |
| 20260906171600 | 61 | 228 | 0.0 | 0.0 | 0.00 | 0.00 | 0.00 | 83 | 1014.1 |
| 20260906170057 | 60 | 159 | 0.0 | 0.0 | 0.00 | 0.00 | 0.00 | 87 | 1014.1 |
| 20260906164552 | 58 | 218 | 0.0 | 0.0 | 0.00 | 0.00 | 0.00 | 95 | 1014.1 |
| 20260906163051 | 57 | 311 | 0.0 | 0.0 | 0.00 | 0.00 | 0.00 | 96 | 1014.2 |
| 20260906161547 | 55 | 311 | 0.0 | 0.0 | 0.00 | 0.00 | 0.00 | 96 | 1014.3 |
| 20260906154556 | 53 | 311 | 0.0 | 0.0 | 0.00 | 0.00 | 0.00 | 95 | 1014.3 |
| 20260906153044 | 53 | 311 | 0.0 | 0.0 | 0.00 | 0.00 | 0.00 | 95 | 1014.2 |
| 20260906151544 | 52 | 311 | 0.0 | 0.0 | 0.00 | 0.00 | 0.00 | 95 | 1014.2 |
| 20260906150043 | 52 | 311 | 0.0 | 0.0 | 0.00 | 0.00 | 0.00 | 95 | 1014.0 |
| 20260906144540 | 52 | 311 | 0.0 | 0.0 | 0.00 | 0.01 | 0.00 | 95 | 1013.9 |
| 20260906143038 | 52 | 311 | 0.0 | 0.0 | 0.00 | 0.01 | 0.00 | 95 | 1013.6 |
| 20260906141535 | 53 | 311 | 0.0 | 0.0 | 0.00 | 0.01 | 0.00 | 95 | 1013.5 |
| 20260906140033 | 53 | 311 | 0.0 | 0.0 | 0.00 | 0.01 | 0.00 | 95 | 1013.3 |
| 20260906134543 | 53 | 311 | 0.0 | 0.0 | 0.00 | 0.01 | 0.00 | 95 | 1013.3 |
| 20260906133048 | 54 | 311 | 0.0 | 0.0 | 0.00 | 0.01 | 0.00 | 95 | 1013.2 |
| 20260906131530 | 54 | 311 | 0.0 | 0.0 | 0.00 | 0.01 | 0.00 | 95 | 1013.2 |
| 20260906130027 | 54 | 311 | 0.0 | 0.0 | 0.00 | 0.01 | 0.00 | 95 | 1013.0 |
| 20260906124526 | 53 | 311 | 0.0 | 0.0 | 0.00 | 0.01 | 0.00 | 95 | 1013.1 |
| 20260906123030 | 54 | 311 | 0.0 | 0.0 | 0.00 | 0.01 | 0.00 | 95 | 1013.0 |
| 20260906121522 | 54 | 311 | 0.0 | 0.0 | 0.00 | 0.01 | 0.00 | 95 | 1013.0 |
| 20260906120021 | 55 | 311 | 0.0 | 0.0 | 0.00 | 0.01 | 0.00 | 95 | 1013.1 |
| 20260906114521 | 55 | 311 | 0.0 | 0.0 | 0.00 | 0.01 | 0.00 | 95 | 1013.0 |
| 20260906113020 | 55 | 310 | 0.0 | 0.0 | 0.00 | 0.01 | 0.00 | 95 | 1013.0 |
| 20260906111519 | 55 | 310 | 0.0 | 0.0 | 0.00 | 0.01 | 0.00 | 95 | 1013.0 |
| 20260906110019 | 55 | 311 | 0.0 | 0.0 | 0.00 | 0.01 | 0.00 | 95 | 1013.0 |
| 20260906104524 | 56 | 311 | 0.0 | 0.0 | 0.00 | 0.01 | 0.00 | 95 | 1012.9 |
| 20260906103020 | 55 | 311 | 0.0 | 0.0 | 0.00 | 0.01 | 0.00 | 95 | 1013.0 |
| 20260906101527 | 55 | 311 | 0.0 | 0.0 | 0.00 | 0.01 | 0.00 | 95 | 1013.0 |
| 20260906100016 | 55 | 311 | 0.0 | 0.0 | 0.00 | 0.01 | 0.00 | 95 | 1013.0 |
| 20260906094515 | 55 | 311 | 0.0 | 0.0 | 0.00 | 0.01 | 0.00 | 95 | 1012.9 |
| 20260906093014 | 55 | 311 | 0.0 | 0.0 | 0.00 | 0.01 | 0.00 | 95 | 1012.9 |
| 20260906091513 | 55 | 311 | 0.0 | 0.0 | 0.00 | 0.01 | 0.00 | 95 | 1013.0 |
| 20260906090012 | 55 | 311 | 0.0 | 0.0 | 0.00 | 0.01 | 0.00 | 95 | 1013.0 |
| 20260906084511 | 55 | 311 | 0.0 | 0.0 | 0.00 | 0.01 | 0.00 | 94 | 1012.9 |
| 20260906083010 | 55 | 311 | 0.0 | 0.0 | 0.00 | 0.01 | 0.00 | 94 | 1013.0 |
| 20260906081509 | 55 | 311 | 0.0 | 0.0 | 0.00 | 0.01 | 0.00 | 94 | 1012.9 |
| 20260906080008 | 55 | 311 | 0.0 | 0.0 | 0.00 | 0.01 | 0.00 | 94 | 1012.8 |
| 20260906074506 | 55 | 311 | 0.0 | 0.0 | 0.00 | 0.01 | 0.00 | 94 | 1012.8 |
| 20260906073003 | 55 | 311 | 0.0 | 0.0 | 0.00 | 0.01 | 0.00 | 94 | 1012.9 |
| 20260906071503 | 56 | 311 | 0.0 | 0.0 | 0.00 | 0.01 | 0.00 | 94 | 1012.9 |
| 20260906070101 | 55 | 311 | 0.0 | 1.0 | 0.00 | 0.01 | 0.00 | 93 | 1012.8 |
| 20260906064602 | 56 | 311 | 0.0 | 0.0 | 0.00 | 0.01 | 0.01 | 93 | 1012.9 |
| 20260906063100 | 56 | 311 | 0.0 | 1.0 | 0.00 | 0.01 | 0.01 | 93 | 1012.9 |
| 20260906061600 | 56 | 311 | 0.0 | 1.0 | 0.00 | 0.01 | 0.01 | 93 | 1012.9 |
| 20260906060059 | 56 | 311 | 0.0 | 1.0 | 0.00 | 0.01 | 0.01 | 93 | 1013.0 |
| 20260906054608 | 56 | 311 | 0.0 | 0.0 | 0.00 | 0.01 | 0.01 | 93 | 1013.0 |
| 20260906053058 | 56 | 311 | 0.0 | 1.0 | 0.00 | 0.01 | 0.01 | 92 | 1013.0 |
| 20260906051557 | 57 | 311 | 0.0 | 1.0 | 0.00 | 0.01 | 0.01 | 92 | 1012.9 |
| 20260906050120 | 57 | 311 | 0.0 | 1.0 | 0.00 | 0.01 | 0.01 | 92 | 1013.0 |
| 20260906044556 | 57 | 311 | 0.0 | 1.0 | 0.00 | 0.01 | 0.01 | 92 | 1013.0 |
| 20260906043058 | 58 | 309 | 0.0 | 1.0 | 0.00 | 0.01 | 0.01 | 92 | 1013.1 |
| 20260906041555 | 58 | 171 | 0.0 | 2.0 | 0.00 | 0.01 | 0.01 | 92 | 1013.0 |
| 20260906040108 | 57 | 171 | 0.0 | 1.0 | 0.00 | 0.01 | 0.01 | 92 | 1012.9 |
| 20260906034555 | 57 | 171 | 0.0 | 0.0 | 0.00 | 0.01 | 0.01 | 91 | 1012.8 |
| 20260906033106 | 58 | 171 | 0.0 | 1.0 | 0.00 | 0.01 | 0.01 | 91 | 1012.7 |
| 20260906031554 | 58 | 171 | 0.0 | 0.0 | 0.00 | 0.01 | 0.01 | 90 | 1012.5 |
| 20260906030053 | 59 | 171 | 0.0 | 1.0 | 0.00 | 0.01 | 0.01 | 89 | 1012.4 |
| 20260906024602 | 59 | 171 | 0.0 | 2.0 | 0.00 | 0.01 | 0.01 | 88 | 1012.4 |
| 20260906023053 | 59 | 171 | 0.0 | 1.0 | 0.00 | 0.01 | 0.01 | 87 | 1012.4 |
| 20260906021553 | 59 | 171 | 0.0 | 1.0 | 0.00 | 0.01 | 0.01 | 86 | 1012.4 |
| 20260906020055 | 60 | 169 | 0.0 | 2.0 | 0.00 | 0.01 | 0.01 | 85 | 1012.4 |
| 20260906014556 | 60 | 179 | 0.0 | 3.0 | 0.00 | 0.01 | 0.01 | 84 | 1012.3 |
| 20260906013050 | 61 | 175 | 1.0 | 3.0 | 0.00 | 0.01 | 0.01 | 82 | 1012.3 |
| 20260906011548 | 62 | 204 | 0.0 | 5.0 | 0.00 | 0.01 | 0.01 | 80 | 1012.2 |
| 20260906010048 | 62 | 197 | 0.0 | 4.0 | 0.00 | 0.01 | 0.01 | 79 | 1012.1 |
| 20260906004547 | 65 | 215 | 2.0 | 7.0 | 0.00 | 0.01 | 0.01 | 75 | 1011.9 |
| 20260906003047 | 65 | 200 | 1.0 | 3.0 | 0.00 | 0.01 | 0.01 | 74 | 1011.9 |
| 20260906001546 | 67 | 189 | 1.0 | 5.0 | 0.00 | 0.01 | 0.01 | 72 | 1011.9 |
| 20260906000045 | 68 | 182 | 3.0 | 8.0 | 0.00 | 0.01 | 0.01 | 70 | 1011.8 |
| 20260905234549 | 68 | 176 | 2.0 | 8.0 | 0.00 | 0.01 | 0.01 | 71 | 1011.9 |
| 20260905233044 | 68 | 153 | 3.0 | 8.0 | 0.00 | 0.01 | 0.01 | 70 | 1012.0 |
| 20260905231547 | 69 | 212 | 2.0 | 6.0 | 0.00 | 0.01 | 0.01 | 69 | 1011.9 |
| 20260905230100 | 69 | 160 | 2.0 | 8.0 | 0.00 | 0.01 | 0.01 | 70 | 1011.9 |
| 20260905224541 | 69 | 162 | 1.0 | 7.0 | 0.00 | 0.01 | 0.01 | 72 | 1012.1 |
| 20260905223041 | 70 | 198 | 2.0 | 5.0 | 0.00 | 0.01 | 0.01 | 72 | 1012.2 |
| 20260905221540 | 70 | 202 | 1.0 | 5.0 | 0.00 | 0.01 | 0.01 | 70 | 1012.4 |
| 20260905220039 | 69 | 235 | 2.0 | 8.0 | 0.00 | 0.01 | 0.01 | 69 | 1012.3 |
| 20260905214539 | 69 | 332 | 1.0 | 8.0 | 0.00 | 0.01 | 0.01 | 70 | 1012.3 |
| 20260905213038 | 70 | 205 | 0.0 | 3.0 | 0.00 | 0.01 | 0.01 | 71 | 1012.3 |
| 20260905211541 | 69 | 59 | 1.0 | 6.0 | 0.00 | 0.01 | 0.01 | 68 | 1012.3 |
| 20260905210036 | 70 | 127 | 1.0 | 6.0 | 0.00 | 0.01 | 0.01 | 68 | 1012.3 |
| 20260905204537 | 70 | 205 | 4.0 | 10.0 | 0.00 | 0.01 | 0.01 | 66 | 1012.3 |
| 20260905203035 | 70 | 56 | 2.0 | 5.0 | 0.00 | 0.01 | 0.01 | 69 | 1012.2 |
| 20260905201534 | 71 | 123 | 2.0 | 6.0 | 0.00 | 0.01 | 0.01 | 66 | 1012.1 |
| 20260905200033 | 72 | 226 | 2.0 | 5.0 | 0.00 | 0.01 | 0.01 | 71 | 1012.0 |
| 20260905194532 | 70 | 215 | 2.0 | 7.0 | 0.00 | 0.02 | 0.01 | 68 | 1012.1 |
| 20260905193030 | 70 | 179 | 2.0 | 6.0 | 0.00 | 0.02 | 0.01 | 70 | 1012.1 |
| 20260905191525 | 69 | 259 | 3.0 | 8.0 | 0.00 | 0.02 | 0.01 | 74 | 1012.2 |
| 20260905190023 | 68 | 182 | 3.0 | 8.0 | 0.00 | 0.02 | 0.01 | 77 | 1012.3 |
| 20260905184522 | 66 | 227 | 1.0 | 6.0 | 0.00 | 0.02 | 0.01 | 77 | 1012.4 |